This demonstration page uses our WeatherBlox Daily Observations layout. Learn more.

39.92423, -83.80882

Hourly Observations for May 20, 2019

Temp ( °F °C ) Dew Point ( °F °C ) Humidity (%) Winds ( mph kmh ) Pressure ( in mb ) Visibility ( mi km ) Precip ( " mm )
12:47 am 00:47 Cloudy 61 16 61 16 100 100 SSW 8 13 29.85 1011 10 16.0934 0 0
12:56 am 00:56 Cloudy 61 16.1 61 16.1 100 100 SSW 9 15 29.85 1011 10 16.0934 0 0
1:56 am 01:56 Partly Cloudy 61 16.1 61 16.1 100 100 SW 9 15 29.85 1011 10 16.0934 0 0
2:56 am 02:56 Clear 60 15.6 60 15.6 100 100 SSW 6 9 29.87 1012 10 16.0934 0 0
3:56 am 03:56 Mostly Cloudy 60 15.6 60 15.6 100 100 SW 8 13 29.87 1012 10 16.0934 0 0
4:24 am 04:24 Cloudy 61 16 61 16 100 100 SW 9 15 29.88 1012 10 16.0934 0 0
4:56 am 04:56 Cloudy 61 16.1 61 16.1 100 100 WSW 9 15 29.89 1012 10 16.0934 0 0
5:19 am 05:19 Cloudy 61 16 61 16 100 100 WSW 8 13 29.9 1012 10 16.0934 0 0
5:33 am 05:33 Cloudy 61 16 61 16 100 100 SW 9 15 29.9 1012 10 16.0934 0 0
5:51 am 05:51 Mostly Cloudy 61 16 61 16 100 100 SW 9 15 29.9 1012 10 16.0934 0 0
5:56 am 05:56 Mostly Cloudy 60 15.6 60 15.6 100 100 SW 9 15 29.91 1013 10 16.0934 0 0
6:18 am 06:18 Partly Cloudy 59 15 59 15 100 100 SW 12 19 29.9 1013 10 16.0934 0 0
6:56 am 06:56 Sunny 59 15 57 13.9 93 93 SW 13 20 29.93 1013 10 16.0934 0 0
7:56 am 07:56 Partly Cloudy 59 15 55 12.8 87 87 W 15 24 29.94 1014 10 16.0934 0 0
8:40 am 08:40 Mostly Cloudy 61 16 55 13 83 83 WSW 12 19 29.95 1014 10 16.0934 0 0
8:56 am 08:56 Mostly Cloudy 60 15.6 54 12.2 80 80 W 14 22 29.96 1015 10 16.0934 0 0
9:12 am 09:12 Partly Cloudy 61 16 54 12 77 77 W 18 30 29.95 1014 10 16.0934 0 0
9:20 am 09:20 Mostly Cloudy 61 16 54 12 77 77 W 15 24 29.96 1014 10 16.0934 0 0
9:56 am 09:56 Mostly Cloudy 61 16.1 54 12.2 78 78 W 13 20 29.96 1015 10 16.0934 0 0
10:56 am 10:56 Mostly Cloudy 62 16.7 53 11.7 73 73 W 18 30 29.98 1015 10 16.0934 0 0
11:22 am 11:22 Mostly Cloudy 63 17 54 12 73 73 WSW 14 22 29.97 1015 10 16.0934 0 0
11:56 am 11:56 Cloudy 62 16.7 53 11.7 73 73 W 14 22 30 1016 10 16.0934 0 0
12:56 pm 12:56 Cloudy 63 17.2 53 11.7 70 70 W 15 24 30.01 1016 10 16.0934 0 0
1:56 pm 13:56 Mostly Cloudy 64 17.8 53 11.7 68 68 W 16 26 30.01 1016 10 16.0934 0 0
2:56 pm 14:56 Mostly Cloudy 65 18.3 53 11.7 66 66 W 13 20 30.01 1016 10 16.0934 0 0
3:56 pm 15:56 Cloudy 64 17.8 53 11.7 68 68 W 13 20 30.01 1016 10 16.0934 0 0
4:56 pm 16:56 Cloudy 63 17.2 52 11.1 68 68 WNW 14 22 30.03 1017 10 16.0934 0 0
5:56 pm 17:56 Cloudy 60 15.6 51 10.6 72 72 NW 13 20 30.05 1018 10 16.0934 0 0
6:46 pm 18:46 Mostly Cloudy 59 15 52 11 77 77 NW 13 20 30.06 1018 10 16.0934 0 0
6:56 pm 18:56 Partly Cloudy 59 15 50 10 72 72 NW 16 26 30.06 1018 10 16.0934 0 0
7:56 pm 19:56 Sunny 57 13.9 49 9.4 74 74 NW 13 20 30.07 1018 10 16.0934 0 0
8:56 pm 20:56 Mostly Clear 53 11.7 49 9.4 86 86 NW 10 17 30.09 1019 10 16.0934 0 0
9:56 pm 21:56 Clear 50 10 47 8.3 89 89 N 6 9 30.08 1019 10 16.0934 0 0
10:56 pm 22:56 Clear 49 9.4 47 8.3 93 93 NW 6 9 30.1 1019 10 16.0934 0 0
11:56 pm 23:56 Clear 48 8.9 45 7.2 89 89 N 7 11 30.11 1020 10 16.0934 0 0

Powered by AerisWeather